Flag for Germany Weather past 2 weeks in Wedel, Schleswig-Holstein, Germany

Now
28 °F

Clear.


Feels Like: 20 °F
Forecast: 25 / 33 °F
Wind: 8 mph from East

Location: Hamburg-Fuhlsbuettel

Current Time: Dec 27, 2014 at 9:03:24 AM

Latest Report: Dec 27, 2014 at 8:20 AM


Visibility: 10 mi

Pressure: 29.86 "Hg

Humidity: 100%

Dew point: 28 °F

Location of WedelLocation

Historic Weather in Wedel — Graph

°F

Wedel temperature yesterday

Maximum temperature yesterday: 32 °F (at 12:20 AM)
Minimum temperature yesterday: 25 °F (at 6:20 AM)
Average temperature yesterday: 29 °F

Past Weeks' High & Low Weather Summary

 TemperatureHumidityPressure
High54 °F (Dec 18, 7:20 PM)100% (Dec 12, 7:20 AM)30.36 "Hg (Dec 12, 7:20 AM)
Low25 °F (Dec 26, 6:20 AM)61% (Dec 25, 11:50 AM)29.18 "Hg (Dec 12, 12:50 PM)
Average42 °F90%29.80 "Hg
* Reported Dec 12 7:20 AM — Dec 27 7:50 AM, Wedel, Weather by CustomWeather, © 2014

Note: Actual official high and low records may vary slightly from our data, if they occured in-between our weather recording intervals... More about our weather records

Advertising

Wedel weather history for previous 24 hours

 ConditionsComfort  
Time TempWeatherWind HumidityBarometerVisibility
7:50 AM
Dec 27
30 °FPassing clouds.9 mph93%29.86 "HgN/A
7:20 AM30 °FPassing clouds.9 mph93%29.86 "HgN/A
6:50 AM30 °FPartly cloudy.12 mph93%29.89 "HgN/A
6:20 AM32 °FPassing clouds.8 mph93%29.89 "HgN/A
5:50 AM32 °FPassing clouds.8 mph87%29.92 "HgN/A
5:20 AM30 °FPassing clouds.8 mph93%29.92 "HgN/A
4:20 AM32 °FPassing clouds.7 mph87%29.98 "HgN/A
3:50 AM32 °FOvercast.7 mph93%30.01 "HgN/A
3:20 AM30 °FLow clouds.6 mph93%30.01 "HgN/A
2:50 AM30 °FLow clouds.6 mph93%30.04 "HgN/A
2:20 AM30 °FLow clouds.5 mph93%30.04 "HgN/A
1:50 AM30 °FLow clouds.7 mph93%30.07 "Hg6 mi
1:20 AM28 °FLow clouds.9 mph100%30.09 "Hg6 mi
12:50 AM28 °FLow clouds.9 mph100%30.09 "Hg4 mi
12:20 AM28 °FLow clouds.10 mph100%30.12 "Hg4 mi
11:50 PM
Dec 26
28 °FLow clouds.8 mph100%30.12 "Hg4 mi
11:20 PM28 °FLow clouds.7 mph100%30.15 "Hg4 mi
10:20 PM28 °FPassing clouds.9 mph100%30.18 "Hg5 mi
9:50 PM27 °FPassing clouds.13 mph100%30.18 "Hg5 mi
9:20 PM28 °FPassing clouds.10 mph93%30.18 "Hg5 mi
8:50 PM28 °FPassing clouds.10 mph93%30.21 "HgN/A
8:20 PM28 °FClear.5 mph93%30.21 "Hg10 mi
7:50 PM28 °FPassing clouds.7 mph93%30.21 "HgN/A
7:20 PM30 °FPassing clouds.8 mph93%30.24 "HgN/A
6:50 PM28 °FPassing clouds.6 mph93%30.24 "HgN/A
6:20 PM30 °FPassing clouds.5 mph93%30.24 "HgN/A
5:20 PM28 °FClear.6 mph86%30.27 "Hg10 mi
4:50 PM30 °FClear.6 mph86%30.27 "Hg10 mi
4:20 PM28 °FClear.6 mph86%30.30 "Hg10 mi
3:50 PM30 °FSunny.6 mph86%30.30 "Hg10 mi
3:20 PM32 °FSunny.6 mph80%30.30 "Hg10 mi
2:50 PM32 °FSunny.6 mph80%30.30 "Hg10 mi
2:20 PM32 °FSunny.7 mph80%30.30 "Hg10 mi
1:50 PM32 °FPassing clouds.7 mph75%30.30 "HgN/A
1:20 PM32 °FScattered clouds.6 mph87%30.33 "HgN/A
12:50 PM32 °FScattered clouds.2 mph87%30.33 "HgN/A
12:20 PM30 °FSunny.2 mph93%30.33 "Hg10 mi
11:50 AM30 °FSunny.2 mph93%30.33 "Hg10 mi
11:20 AM30 °FSunny.1 mph93%30.36 "Hg10 mi
10:50 AM28 °FSunny.1 mph100%30.36 "Hg10 mi
10:20 AM28 °FSunny.1 mph93%30.36 "Hg10 mi
9:50 AM28 °FSunny.2 mph93%30.36 "Hg10 mi
9:20 AM27 °FSunny.1 mph100%30.36 "Hg10 mi
Weather by CustomWeather, © 2014

See weather overviewHow to use our weather pages